Hourly Data Report for September 30, 2017

All times are specified in Local Standard Time (LST). Add 1 hour to adjust for Daylight Saving Time where and when it is observed.

POINT LEPREAU CS
NEW BRUNSWICK

45°04'23.040" N
66°26'57.090" W
6.00 m
8104201
71699
WPE

Download Data

Hourly Data (September 2017)
Hourly Data Report for September 30, 2017
Temp Definition
°C
Dew Point Temp Definition
°C
Rel Hum Definition
%
Wind Dir Definition
10's deg

Wind Spd Definition
km/h
Visibility Definition
km
Stn Press Definition
kPa
Hmdx Definition


Wind Chill Definition


Weather Definition


TIME
00:00 7.1 3.3 77 34 11   101.81     LegendNANA
01:00 6.2 3.3 81 35 9   101.86     LegendNANA
02:00 5.4 2.9 84 1 5   101.88     LegendNANA
03:00 5.3 2.9 85 36 8   101.92     LegendNANA
04:00 5.2 3.0 86 36 9   101.96     LegendNANA
05:00 5.0 3.0 87 36 8   102.01     LegendNANA
06:00 4.5 2.7 88 1 7   102.12     LegendNANA
07:00 5.0 3.0 87 1 9   102.20     LegendNANA
08:00 6.0 3.4 83 1 10   102.24     LegendNANA
09:00 8.2 3.5 72 2 12   102.31     LegendNANA
10:00 10.4 4.7 68 2 11   102.35     LegendNANA
11:00 11.7 3.6 58 2 12   102.35     LegendNANA
12:00 12.6 1.3 46 34 14   102.34     LegendNANA
13:00 11.9 1.6 49 36 11   102.33     LegendNANA
14:00 12.3 1.7 49 36 9   102.31     LegendNANA
15:00 13.0 2.4 49 32 8   102.33     LegendNANA
16:00 13.4 2.0 46 30 7   102.29     LegendNANA
17:00 12.8 2.9 51 14 6   102.29     LegendNANA
18:00 9.3 3.7 68 21 5   102.34     LegendNANA
19:00 8.4 3.6 72 21 8   102.38     LegendNANA
20:00 5.1 3.0 86 31 3   102.42     LegendNANA
21:00 4.0 2.4 89 32 4   102.44     LegendNANA
22:00 3.9 2.5 91 31 5   102.46     LegendNANA
23:00 2.7 1.7 93 33 7   102.45     LegendNANA

Notes on Data Quality.

Legend

  • E = Estimated
  • M = Missing
  • NA = Not Available
  • ‡ = Partner data that is not subject to review by the National Climate Archives
Date modified: